Weather History for Big Bear City, CA

Change the Weather History Date:

Wednesday, December 5, 2012

  Actual Average (KBUO) Record (KBUO)
Temperature  
Mean Temperature 44 °F -  
Max Temperature 62 °F 59 °F 77 °F (2000)
Min Temperature 26 °F 42 °F 37 °F (1998)
Degree Days  
Heating Degree Days 21    
Moisture  
Dew Point 23 °F    
Average Humidity 53    
Maximum Humidity 93    
Minimum Humidity 14    
Precipitation  
Precipitation 0.00 in - - ()
Sea Level Pressure  
Sea Level Pressure 30.25 in    
Wind  
Wind Speed 3 mph (WSW)    
Max Wind Speed 13 mph    
Max Gust Speed 21 mph    
Visibility 10 miles    
Events      
Averages and records for this station are not official NWS values.
T = Trace of Precipitation, MM = Missing Value Source: NWS Daily Summary

Daily Weather History Graph

Daily Weather History Graph

Search for Another Location

Airport:

Trip Planner

Search our weather history database for the weather conditions in past years. The results will help you decide how hot, cold, wet, or windy it might be!

Date:

Astronomy

Dec. 05, 2012 Rise Set
Actual Time 6:39 AM PST 4:37 PM PST
Civil Twilight 6:11 AM PST 5:05 PM PST
Nautical Twilight 5:40 AM PST 5:36 PM PST
Astronomical Twilight 5:09 AM PST 6:06 PM PST
Moon 11:18 PM PST (12/5) 11:17 AM PST (12/5)
Length of Visible Light 10h 53m
Length of Day
9h 58m
Waning Gibbous, 58% of the Moon is Illuminated
Dec 5
Waning Gibbous
Dec 6
Last Quarter
Dec 13
New
Dec 19
First Quarter
Dec 28
Full

Hourly Weather History & Observations

Time (PST) Temp. Windchill Dew Point Humidity Pressure Visibility Wind Dir Wind Speed Gust Speed Precip Events Conditions
12:15 AM 26.6 °F - 14.0 °F 59% 30.36 in 10.0 mi Calm Calm - N/A   Clear
12:35 AM 26.6 °F - 14.0 °F 59% 30.36 in 10.0 mi Calm Calm - N/A   Clear
12:55 AM 26.6 °F - 12.2 °F 55% 30.35 in 10.0 mi Calm Calm - N/A   Clear
1:15 AM 26.6 °F - 14.0 °F 59% 30.34 in 10.0 mi Calm Calm - N/A   Clear
1:35 AM 26.6 °F 21.2 °F 14.0 °F 59% 30.34 in 10.0 mi West 4.6 mph - N/A   Clear
1:55 AM 26.6 °F - 14.0 °F 59% 30.34 in 10.0 mi Calm Calm - N/A   Clear
2:15 AM 26.6 °F - 15.8 °F 64% 30.33 in 10.0 mi Calm Calm - N/A   Clear
2:35 AM 26.6 °F - 17.6 °F 69% 30.33 in 10.0 mi Calm Calm - N/A   Clear
2:55 AM 26.6 °F - 17.6 °F 69% 30.33 in 10.0 mi Calm Calm - N/A   Clear
3:15 AM 26.6 °F - 17.6 °F 69% 30.32 in 10.0 mi Calm Calm - N/A   Clear
3:55 AM 26.6 °F - 17.6 °F 69% 30.31 in 10.0 mi Calm Calm - N/A   Clear
4:15 AM 26.6 °F - 17.6 °F 69% 30.31 in 10.0 mi Calm Calm - N/A   Clear
4:35 AM 26.6 °F - 17.6 °F 69% 30.30 in 10.0 mi Calm Calm - N/A   Clear
4:55 AM 26.6 °F - 17.6 °F 69% 30.31 in 10.0 mi Calm Calm - N/A   Clear
6:55 AM 26.6 °F - 15.8 °F 64% 30.31 in 10.0 mi Calm Calm - N/A   Clear
7:15 AM 28.4 °F - 17.6 °F 64% 30.31 in 10.0 mi Calm Calm - N/A   Clear
7:35 AM 30.2 °F - 14.0 °F 51% 30.31 in 10.0 mi Calm Calm - N/A   Clear
7:55 AM 32.0 °F 28.7 °F 19.4 °F 60% 30.31 in 10.0 mi West 3.5 mph - N/A   Clear
8:15 AM 35.6 °F 31.7 °F 23.0 °F 60% 30.31 in 10.0 mi West 4.6 mph - N/A   Clear
8:35 AM 41.0 °F 38.0 °F 21.2 °F 45% 30.31 in 10.0 mi West 4.6 mph - N/A   Clear
8:55 AM 42.8 °F 39.3 °F 19.4 °F 39% 30.31 in 10.0 mi West 5.8 mph - N/A   Clear
9:15 AM 46.4 °F - 23.0 °F 40% 30.31 in 10.0 mi Calm Calm - N/A   Clear
9:35 AM 53.6 °F - 19.4 °F 26% 30.30 in 10.0 mi West 6.9 mph - N/A   Clear
9:55 AM 57.2 °F - 8.6 °F 14% 30.30 in 10.0 mi WSW 8.1 mph - N/A   Clear
10:15 AM 59.0 °F - 10.4 °F 15% 30.30 in 10.0 mi West 6.9 mph - N/A   Clear
10:35 AM 60.8 °F - 12.2 °F 15% 30.29 in 10.0 mi West 5.8 mph - N/A   Clear
10:55 AM 60.8 °F - 12.2 °F 15% 30.28 in 10.0 mi West 8.1 mph - N/A   Clear
11:15 AM 62.6 °F - 17.6 °F 18% 30.27 in 10.0 mi West 8.1 mph - N/A   Clear
11:55 AM 62.6 °F - 17.6 °F 18% 30.25 in 10.0 mi West 9.2 mph - N/A   Clear
12:15 PM 60.8 °F - 19.4 °F 20% 30.24 in 7.0 mi West 9.2 mph - N/A   Clear
12:35 PM 60.8 °F - 21.2 °F 22% 30.23 in 10.0 mi West 10.4 mph - N/A   Clear
12:55 PM 60.8 °F - 21.2 °F 22% 30.23 in 10.0 mi West 10.4 mph - N/A   Clear
1:15 PM 60.8 °F - 19.4 °F 20% 30.23 in 10.0 mi WSW 8.1 mph - N/A   Clear
1:35 PM 60.8 °F - 19.4 °F 20% 30.22 in 10.0 mi WSW 8.1 mph - N/A   Clear
1:55 PM 60.8 °F - 21.2 °F 22% 30.21 in 10.0 mi West 11.5 mph 16.1 mph N/A   Clear
2:15 PM 60.8 °F - 23.0 °F 23% 30.21 in 10.0 mi WSW 9.2 mph 18.4 mph N/A   Clear
2:35 PM 59.0 °F - 24.8 °F 27% 30.21 in 10.0 mi West 10.4 mph - N/A   Clear
2:55 PM 59.0 °F - 28.4 °F 31% 30.20 in 10.0 mi West 11.5 mph 17.3 mph N/A   Clear
3:15 PM 55.4 °F - 28.4 °F 36% 30.21 in 10.0 mi West 12.7 mph 20.7 mph N/A   Clear
3:35 PM 55.4 °F - 30.2 °F 38% 30.21 in 10.0 mi West 11.5 mph 16.1 mph N/A   Clear
3:55 PM 53.6 °F - 30.2 °F 41% 30.21 in 10.0 mi WSW 9.2 mph 16.1 mph N/A   Clear
4:15 PM 51.8 °F - 32.0 °F 47% 30.20 in 10.0 mi WSW 6.9 mph - N/A   Clear
4:35 PM 51.8 °F - 32.0 °F 47% 30.20 in 10.0 mi West 9.2 mph 16.1 mph N/A   Clear
4:55 PM 50.0 °F - 32.0 °F 50% 30.20 in 10.0 mi SW 5.8 mph - N/A   Clear
5:15 PM 50.0 °F - 32.0 °F 50% 30.20 in 10.0 mi SW 5.8 mph - N/A   Clear
5:35 PM 50.0 °F - 33.8 °F 54% 30.20 in 10.0 mi SW 4.6 mph - N/A   Clear
5:55 PM 48.2 °F - 33.8 °F 58% 30.21 in 10.0 mi WSW 8.1 mph - N/A   Clear
6:15 PM 46.4 °F 45.2 °F 33.8 °F 62% 30.20 in 10.0 mi SW 3.5 mph - N/A   Clear
6:35 PM 46.4 °F 44.3 °F 33.8 °F 62% 30.20 in 10.0 mi SW 4.6 mph - N/A   Clear
6:55 PM 46.4 °F 44.3 °F 33.8 °F 62% 30.20 in 10.0 mi SW 4.6 mph - N/A   Clear
7:15 PM 44.6 °F - 33.8 °F 66% 30.19 in 10.0 mi Calm Calm - N/A   Clear
7:55 PM 41.0 °F - 32.0 °F 70% 30.20 in 10.0 mi Calm Calm - N/A   Clear
8:15 PM 37.4 °F - 32.0 °F 81% 30.20 in 10.0 mi Calm Calm - N/A   Clear
8:35 PM 37.4 °F - 32.0 °F 81% 30.19 in 10.0 mi Calm Calm - N/A   Clear
8:55 PM 35.6 °F - 32.0 °F 87% 30.19 in 10.0 mi Calm Calm - N/A   Clear
9:15 PM 35.6 °F - 32.0 °F 87% 30.19 in 10.0 mi Calm Calm - N/A   Clear
9:35 PM 35.6 °F - 30.2 °F 81% 30.19 in 10.0 mi Calm Calm - N/A   Clear
9:55 PM 35.6 °F - 30.2 °F 81% 30.18 in 10.0 mi Calm Calm - N/A   Clear
10:15 PM 35.6 °F - 32.0 °F 87% 30.18 in 10.0 mi Calm Calm - N/A   Clear
10:35 PM 33.8 °F - 30.2 °F 87% 30.17 in 10.0 mi Calm Calm - N/A   Clear
10:55 PM 33.8 °F - 30.2 °F 87% 30.17 in 10.0 mi Calm Calm - N/A   Clear
11:15 PM 32.0 °F 27.5 °F 30.2 °F 93% 30.16 in 10.0 mi West 4.6 mph - N/A   Clear
11:35 PM 33.8 °F - 30.2 °F 87% 30.16 in 10.0 mi Calm Calm - N/A   Clear
11:55 PM 32.0 °F - 30.2 °F 93% 30.16 in 10.0 mi Calm Calm - N/A   Clear